| time (UTC) | temp C | wind direction | speed KPH | gust KPH | rain 1hr cm | rain 24hr cm | rain mn cm | humidity % | barometer mb |
| 20260506232111 | 10 | 212 | 6.4 | 16.1 | 0.05 | 0.99 | 0.08 | 89 | 1011.9 |
| 20260506231111 | 10 | 220 | 6.4 | 19.3 | 0.05 | 0.99 | 0.08 | 89 | 1011.9 |
| 20260506230111 | 10 | 212 | 6.4 | 19.3 | 0.08 | 0.99 | 0.08 | 89 | 1011.9 |
| 20260506224111 | 10 | 237 | 8.0 | 19.3 | 0.05 | 0.94 | 0.05 | 89 | 1011.9 |
| 20260506223111 | 10 | 114 | 8.0 | 17.7 | 0.05 | 0.94 | 0.05 | 89 | 1011.9 |
| 20260506222111 | 10 | 199 | 6.4 | 17.7 | 0.05 | 0.91 | 0.03 | 89 | 1011.7 |
| 20260506221111 | 10 | 185 | 9.7 | 25.7 | 0.05 | 0.91 | 0.03 | 88 | 1011.6 |
| 20260506220111 | 10 | 197 | 11.3 | 22.5 | 0.05 | 0.89 | 0.00 | 88 | 1011.5 |
| 20260506215111 | 10 | 243 | 11.3 | 27.4 | 0.05 | 0.89 | 0.89 | 88 | 1011.4 |
| 20260506214111 | 10 | 280 | 8.0 | 17.7 | 0.05 | 0.89 | 0.89 | 88 | 1011.4 |
| 20260506212111 | 10 | 231 | 9.7 | 22.5 | 0.08 | 0.89 | 0.89 | 89 | 1011.3 |
| 20260506210111 | 10 | 235 | 4.8 | 19.3 | 0.10 | 0.86 | 0.86 | 90 | 1011.2 |
| 20260506205111 | 10 | 243 | 3.2 | 11.3 | 0.13 | 0.84 | 0.84 | 90 | 1011.2 |
| 20260506204111 | 10 | 204 | 6.4 | 16.1 | 0.15 | 0.84 | 0.84 | 90 | 1011.1 |
| 20260506203111 | 10 | 258 | 6.4 | 16.1 | 0.15 | 0.81 | 0.81 | 90 | 1011.2 |
| 20260506202111 | 10 | 244 | 4.8 | 14.5 | 0.15 | 0.79 | 0.79 | 90 | 1011.1 |
| 20260506200111 | 10 | 237 | 8.0 | 24.1 | 0.15 | 0.76 | 0.76 | 89 | 1011.0 |
| 20260506194111 | 10 | 190 | 4.8 | 16.1 | 0.15 | 0.71 | 0.71 | 89 | 1010.8 |
| 20260506193111 | 10 | 245 | 3.2 | 11.3 | 0.18 | 0.69 | 0.69 | 89 | 1010.6 |
| 20260506192111 | 10 | 254 | 1.6 | 8.0 | 0.18 | 0.66 | 0.66 | 90 | 1010.5 |
| 20260506191111 | 10 | 254 | 3.2 | 12.9 | 0.20 | 0.64 | 0.64 | 89 | 1010.4 |
| 20260506184111 | 11 | 220 | 4.8 | 12.9 | 0.20 | 0.53 | 0.53 | 90 | 1010.1 |
| 20260506183111 | 11 | 193 | 6.4 | 17.7 | 0.15 | 0.51 | 0.51 | 90 | 1010.0 |
| 20260506182111 | 11 | 193 | 6.4 | 14.5 | 0.15 | 0.48 | 0.48 | 90 | 1009.9 |
| 20260506181111 | 11 | 245 | 8.0 | 16.1 | 0.15 | 0.43 | 0.43 | 90 | 1009.8 |
| 20260506180111 | 11 | 204 | 8.0 | 25.7 | 0.15 | 0.41 | 0.41 | 90 | 1009.5 |
| 20260506175111 | 11 | 257 | 6.4 | 17.7 | 0.15 | 0.38 | 0.38 | 90 | 1009.4 |
| 20260506174111 | 11 | 196 | 9.7 | 25.7 | 0.13 | 0.33 | 0.33 | 90 | 1009.3 |
| 20260506173111 | 11 | 217 | 8.0 | 22.5 | 0.15 | 0.33 | 0.33 | 90 | 1009.1 |
| 20260506172111 | 11 | 235 | 6.4 | 17.7 | 0.15 | 0.33 | 0.33 | 89 | 1008.9 |
| 20260506171111 | 11 | 202 | 6.4 | 19.3 | 0.13 | 0.28 | 0.28 | 90 | 1008.8 |
| 20260506170111 | 11 | 223 | 6.4 | 17.7 | 0.15 | 0.25 | 0.25 | 89 | 1008.8 |
| 20260506165111 | 11 | 218 | 8.0 | 19.3 | 0.15 | 0.23 | 0.23 | 89 | 1008.7 |
| 20260506164111 | 11 | 164 | 9.7 | 24.1 | 0.15 | 0.23 | 0.23 | 89 | 1008.7 |
| 20260506163111 | 11 | 197 | 9.7 | 19.3 | 0.15 | 0.20 | 0.20 | 89 | 1008.8 |
| 20260506162110 | 11 | 254 | 8.0 | 22.5 | 0.13 | 0.18 | 0.18 | 88 | 1008.7 |
| 20260506161111 | 11 | 220 | 6.4 | 17.7 | 0.13 | 0.15 | 0.15 | 88 | 1008.9 |
| 20260506160109 | 11 | 246 | 4.8 | 16.1 | 0.08 | 0.13 | 0.13 | 87 | 1008.8 |
| 20260506155109 | 11 | 244 | 3.2 | 11.3 | 0.05 | 0.10 | 0.10 | 87 | 1008.7 |
| 20260506153109 | 11 | 219 | 8.0 | 16.1 | 0.03 | 0.05 | 0.05 | 86 | 1008.6 |
| 20260506152109 | 11 | 251 | 6.4 | 19.3 | 0.03 | 0.05 | 0.05 | 85 | 1008.6 |
| 20260506150109 | 12 | 250 | 4.8 | 22.5 | 0.00 | 0.05 | 0.05 | 84 | 1008.4 |
| 20260506144110 | 12 | 204 | 11.3 | 25.7 | 0.03 | 0.05 | 0.05 | 84 | 1008.4 |
| 20260506143110 | 12 | 226 | 8.0 | 16.1 | 0.03 | 0.05 | 0.05 | 84 | 1008.4 |
| 20260506142110 | 12 | 211 | 9.7 | 24.1 | 0.03 | 0.05 | 0.05 | 85 | 1008.3 |
| 20260506141110 | 12 | 262 | 8.0 | 22.5 | 0.03 | 0.05 | 0.05 | 84 | 1008.3 |
| 20260506140110 | 12 | 169 | 11.3 | 22.5 | 0.03 | 0.05 | 0.05 | 84 | 1008.2 |
| 20260506135110 | 12 | 190 | 11.3 | 25.7 | 0.03 | 0.15 | 0.05 | 84 | 1008.2 |
| 20260506134109 | 12 | 249 | 11.3 | 25.7 | 0.00 | 0.13 | 0.03 | 85 | 1008.2 |
| 20260506133109 | 12 | 221 | 8.0 | 24.1 | 0.00 | 0.13 | 0.03 | 84 | 1008.2 |
| 20260506132114 | 12 | 270 | 11.3 | 30.6 | 0.00 | 0.13 | 0.03 | 84 | 1008.0 |
| 20260506131115 | 13 | 231 | 11.3 | 22.5 | 0.00 | 0.13 | 0.03 | 84 | 1008.0 |
| 20260506130114 | 13 | 218 | 11.3 | 25.7 | 0.00 | 0.13 | 0.03 | 83 | 1008.0 |
| 20260506125114 | 13 | 254 | 11.3 | 29.0 | 0.00 | 0.13 | 0.03 | 83 | 1007.7 |
| 20260506123114 | 13 | 251 | 11.3 | 25.7 | 0.03 | 0.13 | 0.03 | 84 | 1007.5 |
| 20260506122114 | 13 | 255 | 16.1 | 32.2 | 0.03 | 0.13 | 0.03 | 84 | 1007.3 |
| 20260506121114 | 14 | 253 | 9.7 | 29.0 | 0.03 | 0.13 | 0.03 | 85 | 1007.4 |
| 20260506120114 | 14 | 228 | 11.3 | 27.4 | 0.03 | 0.13 | 0.03 | 84 | 1007.3 |
| 20260506114114 | 14 | 244 | 8.0 | 17.7 | 0.00 | 0.10 | 0.00 | 83 | 1007.2 |
| 20260506113114 | 15 | 185 | 6.4 | 16.1 | 0.00 | 0.10 | 0.00 | 83 | 1007.2 |
| 20260506112114 | 15 | 232 | 11.3 | 25.7 | 0.00 | 0.10 | 0.00 | 81 | 1007.1 |
| 20260506111114 | 15 | 268 | 14.5 | 29.0 | 0.00 | 0.10 | 0.00 | 78 | 1007.0 |
| 20260506110114 | 15 | 237 | 8.0 | 19.3 | 0.00 | 0.10 | 0.00 | 78 | 1007.1 |
| 20260506105114 | 15 | 194 | 8.0 | 24.1 | 0.00 | 0.10 | 0.00 | 79 | 1007.1 |
| 20260506104114 | 15 | 254 | 8.0 | 22.5 | 0.00 | 0.10 | 0.00 | 78 | 1007.0 |
| 20260506103114 | 15 | 228 | 4.8 | 19.3 | 0.00 | 0.10 | 0.00 | 78 | 1006.9 |
| 20260506101116 | 15 | 214 | 8.0 | 16.1 | 0.00 | 0.10 | 0.00 | 78 | 1006.9 |
| 20260506095114 | 15 | 265 | 6.4 | 16.1 | 0.00 | 0.10 | 0.00 | 78 | 1006.8 |
| 20260506092114 | 15 | 265 | 6.4 | 17.7 | 0.00 | 0.10 | 0.00 | 77 | 1006.8 |
| 20260506091114 | 15 | 251 | 8.0 | 19.3 | 0.00 | 0.10 | 0.00 | 77 | 1006.8 |
| 20260506090115 | 15 | 211 | 6.4 | 19.3 | 0.00 | 0.10 | 0.00 | 76 | 1006.8 |
| 20260506085114 | 15 | 231 | 8.0 | 17.7 | 0.00 | 0.10 | 0.00 | 76 | 1006.8 |
| 20260506084114 | 15 | 242 | 11.3 | 19.3 | 0.00 | 0.10 | 0.00 | 76 | 1006.5 |
| 20260506082114 | 15 | 250 | 4.8 | 16.1 | 0.00 | 0.10 | 0.00 | 77 | 1006.4 |
| 20260506081114 | 15 | 216 | 8.0 | 25.7 | 0.00 | 0.10 | 0.00 | 77 | 1006.5 |
| 20260506080114 | 15 | 211 | 8.0 | 19.3 | 0.00 | 0.10 | 0.00 | 76 | 1006.5 |
| 20260506073114 | 15 | 218 | 3.2 | 11.3 | 0.00 | 0.10 | 0.00 | 78 | 1006.5 |
| 20260506072114 | 14 | 213 | 4.8 | 14.5 | 0.00 | 0.10 | 0.00 | 79 | 1006.4 |
| 20260506071114 | 14 | 210 | 4.8 | 16.1 | 0.00 | 0.10 | 0.00 | 79 | 1006.4 |
| 20260506070114 | 14 | 225 | 8.0 | 19.3 | 0.00 | 0.10 | 0.00 | 79 | 1006.4 |
| 20260506060114 | 13 | 251 | 0.0 | 3.2 | 0.00 | 0.10 | 0.00 | 83 | 1006.7 |
| 20260506051114 | 12 | 239 | 0.0 | 3.2 | 0.00 | 0.10 | 0.00 | 84 | 1006.5 |
| 20260506050114 | 12 | 250 | 0.0 | 4.8 | 0.00 | 0.10 | 0.00 | 85 | 1006.7 |
| 20260506044114 | 11 | 260 | 1.6 | 9.7 | 0.00 | 0.13 | 0.00 | 85 | 1006.8 |
| 20260506043114 | 11 | 240 | 0.0 | 1.6 | 0.00 | 0.13 | 0.00 | 85 | 1006.9 |
| 20260506042114 | 11 | 243 | 1.6 | 4.8 | 0.00 | 0.13 | 0.00 | 85 | 1006.9 |
| 20260506040114 | 11 | 218 | 1.6 | 9.7 | 0.00 | 0.13 | 0.00 | 85 | 1006.9 |
| 20260506035114 | 11 | 235 | 1.6 | 4.8 | 0.00 | 0.13 | 0.00 | 85 | 1006.9 |
| 20260506034114 | 11 | 257 | 1.6 | 12.9 | 0.00 | 0.13 | 0.00 | 85 | 1006.8 |
| 20260506033114 | 11 | 235 | 0.0 | 4.8 | 0.00 | 0.13 | 0.00 | 84 | 1006.9 |
| 20260506032114 | 11 | 257 | 0.0 | 1.6 | 0.00 | 0.13 | 0.00 | 84 | 1006.8 |
| 20260506031114 | 11 | 267 | 0.0 | 3.2 | 0.00 | 0.13 | 0.00 | 85 | 1006.9 |
| 20260506030114 | 11 | 248 | 0.0 | 3.2 | 0.00 | 0.13 | 0.00 | 87 | 1007.0 |
| 20260506024114 | 11 | 257 | 0.0 | 0.0 | 0.00 | 0.13 | 0.00 | 87 | 1007.2 |
| 20260506023114 | 11 | 253 | 0.0 | 3.2 | 0.00 | 0.13 | 0.00 | 87 | 1007.2 |
| 20260506020114 | 11 | 263 | 1.6 | 8.0 | 0.00 | 0.13 | 0.00 | 87 | 1007.5 |
| 20260506015113 | 11 | 223 | 3.2 | 9.7 | 0.00 | 0.13 | 0.00 | 88 | 1007.6 |
| 20260506014113 | 11 | 249 | 1.6 | 8.0 | 0.00 | 0.13 | 0.00 | 89 | 1007.7 |
| 20260506013113 | 11 | 247 | 0.0 | 4.8 | 0.00 | 0.13 | 0.00 | 89 | 1007.9 |
| 20260506012113 | 11 | 234 | 0.0 | 3.2 | 0.00 | 0.13 | 0.00 | 89 | 1008.1 |
| 20260506010113 | 11 | 232 | 1.6 | 4.8 | 0.00 | 0.13 | 0.00 | 89 | 1008.0 |
| 20260506005113 | 11 | 246 | 1.6 | 9.7 | 0.00 | 0.13 | 0.00 | 89 | 1007.9 |
| 20260506003113 | 11 | 255 | 0.0 | 1.6 | 0.00 | 0.13 | 0.00 | 89 | 1008.0 |
| 20260506002113 | 11 | 255 | 0.0 | 1.6 | 0.00 | 0.13 | 0.00 | 88 | 1008.2 |
| 20260506001112 | 11 | 239 | 0.0 | 3.2 | 0.00 | 0.13 | 0.00 | 87 | 1008.3 |
| 20260506000113 | 11 | 241 | 0.0 | 1.6 | 0.00 | 0.13 | 0.00 | 87 | 1008.5 |
| 20260505235112 | 11 | 228 | 0.0 | 4.8 | 0.00 | 0.13 | 0.00 | 86 | 1008.5 |
| 20260505234112 | 11 | 250 | 0.0 | 8.0 | 0.00 | 0.13 | 0.00 | 86 | 1008.6 |
| 20260505233112 | 11 | 255 | 1.6 | 11.3 | 0.00 | 0.13 | 0.00 | 86 | 1008.7 |